This is the latest recevied weather packets stored in our database for station/object K4PAD. If no packets are shown the sender has not sent any weather packets the latest 10 day(s).
| Time | Temp. | Humidity | Pressure | Rain* | Wind** | Luminosity | Snow |
|---|---|---|---|---|---|---|---|
| 1777821528 | 20.56° C | 68% | 1021.1 hPa | 0 mm | - | 912 W/m² | - |
| 1777821226 | 20.56° C | 67% | 1021 hPa | 0 mm | - | 969 W/m² | - |
| 1777820923 | 20° C | 70% | 1021.2 hPa | 0 mm | - | 877 W/m² | - |
| 1777820619 | 20° C | 70% | 1021.1 hPa | 0 mm | - | 897 W/m² | - |
| 1777820316 | 19.44° C | 71% | 1021.1 hPa | 0 mm | - | 502 W/m² | - |
| 1777820014 | 19.44° C | 72% | 1021.3 hPa | 0 mm | - | 523 W/m² | - |
| 1777819710 | 18.89° C | 75% | 1021.2 hPa | 0 mm | - | 825 W/m² | - |
| 1777819409 | 18.89° C | 74% | 1021.4 hPa | 0 mm | - | 806 W/m² | - |
| 1777819105 | 19.44° C | 75% | 1021.1 hPa | 0 mm | - | 297 W/m² | - |
| 1777818802 | 18.89° C | 76% | 1021.1 hPa | 0 mm | - | 765 W/m² | - |
| 1777818498 | 18.33° C | 77% | 1021 hPa | 0 mm | - | 733 W/m² | - |
| 1777818195 | 18.89° C | 75% | 1021 hPa | 0 mm | - | 733 W/m² | - |
| 1777817892 | 18.33° C | 78% | 1020.8 hPa | 0 mm | - | 690 W/m² | - |
| 1777817589 | 18.33° C | 78% | 1020.9 hPa | 0 mm | - | 671 W/m² | - |
| 1777817286 | 17.78° C | 78% | 1020.9 hPa | 0 mm | - | 649 W/m² | - |
| 1777816983 | 17.78° C | 80% | 1020.8 hPa | 0 mm | - | 633 W/m² | - |
| 1777816679 | 17.22° C | 81% | 1020.6 hPa | 0 mm | - | 609 W/m² | - |
| 1777816376 | 16.67° C | 83% | 1020.6 hPa | 0 mm | - | 545 W/m² | - |
| 1777816074 | 16.67° C | 83% | 1020.7 hPa | 0 mm | - | 566 W/m² | - |
| 1777815771 | 16.67° C | 86% | 1020.5 hPa | 0 mm | - | 546 W/m² | - |
| 1777815469 | 15.56° C | 86% | 1020.6 hPa | 0 mm | - | 426 W/m² | - |
| 1777815166 | 15.56° C | 89% | 1020.6 hPa | 0 mm | - | 429 W/m² | - |
| 1777814862 | 15° C | 91% | 1020.7 hPa | 0 mm | - | 354 W/m² | - |
| 1777814558 | 15° C | 91% | 1020.6 hPa | 0 mm | - | 296 W/m² | - |
| 1777814256 | 14.44° C | 93% | 1020.6 hPa | 0 mm | - | 494 W/m² | - |
* Rain latest hour (hover to see other rain measurements)
** Current wind speed in m/s (hover to see current wind gust speed)